Weather History for CWYW - March, 2014

Change the Weather History Date:

Friday, March 7, 2014

  Actual Average Record
Temperature  
Mean Temperature 14 °F -  
Max Temperature 19 °F - - ()
Min Temperature 0 °F - - ()
Degree Days  
Heating Degree Days 52    
Moisture  
Dew Point 10 °F    
Average Humidity 82    
Maximum Humidity 91    
Minimum Humidity 68    
Precipitation  
Precipitation 0.08 in - - ()
Sea Level Pressure  
Sea Level Pressure 29.97 in    
Wind  
Wind Speed 3 mph ()    
Max Wind Speed 8 mph    
Max Gust Speed -    
T = Trace of Precipitation, MM = Missing Value Source: Averaged Metar Reports

Daily Weather History Graph

Daily Weather History Graph

Search for Another Location

Airport or City:

Trip Planner

Search our weather history database for the weather conditions in past years. The results will help you decide how hot, cold, wet, or windy it might be!

Date:

Astronomy

Mar. 07, 2014 Rise Set
Actual Time 7:26 AM EST 6:47 PM EST
Civil Twilight 6:54 AM EST 7:20 PM EST
Nautical Twilight 6:16 AM EST 7:57 PM EST
Astronomical Twilight 5:38 AM EST 8:36 PM EST
Moon 10:42 AM EST (3/7) 1:28 AM EST (3/7)
Length of Visible Light 12h 25m
Length of Day
11h 21m
Waxing Crescent, 42% of the Moon is Illuminated
Mar 7
Waxing Crescent
Mar 8
First Quarter
Mar 16
Full
Mar 23
Last Quarter
Mar 30
New

Hourly Weather History & Observations

Time (EST) Temp. Windchill Dew Point Humidity Pressure Visibility Wind Dir Wind Speed Gust Speed Precip Events Conditions
12:00 AM 15.4 °F - 13.3 °F 91% 29.83 in - North 2.3 mph - N/A   Unknown
1:00 AM 15 °F - 13 °F 88% 29.83 in - NNW 1.2 mph - -  
1:00 AM 15.4 °F - 13.1 °F 90% 29.83 in - North 1.2 mph - N/A   Unknown
2:00 AM 15.6 °F - 13.3 °F 90% 29.84 in - NNW 2.3 mph - 0.02 in   Unknown
3:00 AM 16.3 °F - 14.0 °F 90% 29.83 in - NNE 2.3 mph - 0.02 in   Unknown
4:00 AM 16 °F - 14 °F 87% 29.82 in - NNE 3.5 mph - -  
4:00 AM 16.2 °F 10.6 °F 13.8 °F 90% 29.82 in - NNE 3.5 mph - 0.01 in   Unknown
5:00 AM 16.2 °F 9.0 °F 13.5 °F 89% 29.83 in - NE 4.6 mph - 0.01 in   Unknown
6:00 AM 15.4 °F - 12.9 °F 90% 29.85 in - North 2.3 mph - 0.01 in   Unknown
7:00 AM 15 °F - 12 °F 81% 29.85 in - North 3.5 mph - -  
7:00 AM 14.5 °F 8.8 °F 11.8 °F 89% 29.85 in - North 3.5 mph - 0.02 in   Unknown
8:00 AM 13.1 °F 5.4 °F 10.0 °F 88% 29.88 in - North 4.6 mph - 0.02 in   Unknown
9:00 AM 13.1 °F 7.1 °F 10.0 °F 88% 29.91 in - North 3.5 mph - 0.02 in   Unknown
10:00 AM 14 °F - 10 °F 76% 29.93 in - North 5.8 mph - -  
10:00 AM 13.6 °F 6.0 °F 9.9 °F 85% 29.93 in - North 4.6 mph - 0.00 in   Unknown
11:00 AM 15.1 °F 5.2 °F 10.9 °F 84% 29.94 in - North 6.9 mph - 0.00 in   Unknown
12:00 PM 16.5 °F 11.0 °F 12.2 °F 83% 29.95 in - North 3.5 mph - N/A   Unknown
1:00 PM 18 °F - 12 °F 70% 29.97 in - North 6.9 mph - -  
1:00 PM 18.1 °F 10.0 °F 12.4 °F 78% 29.97 in - North 5.8 mph - N/A   Unknown
2:00 PM 18.0 °F 7.7 °F 11.7 °F 76% 30.00 in - North 8.1 mph - N/A   Unknown
3:00 PM 17.1 °F 8.7 °F 10.8 °F 76% 30.02 in - NNW 5.8 mph - N/A   Unknown
4:00 PM 17 °F - 11 °F 68% 30.05 in - North 5.8 mph - -  
4:00 PM 16.9 °F 8.5 °F 11.1 °F 78% 30.05 in - North 5.8 mph - N/A   Unknown
5:00 PM 16.3 °F 6.7 °F 10.8 °F 79% 30.07 in - NNW 6.9 mph - N/A   Unknown
6:00 PM 15.6 °F 10.0 °F 9.9 °F 78% 30.10 in - NNW 3.5 mph - N/A   Unknown
7:00 PM 14 °F - 8 °F 69% 30.14 in - NNW 3.5 mph - -  
7:00 PM 14.2 °F 6.7 °F 8.4 °F 78% 30.14 in - NW 4.6 mph - N/A   Unknown
8:00 PM 13.5 °F - 9.1 °F 83% 30.16 in - NW 2.3 mph - N/A   Unknown
9:00 PM 12.7 °F - 7.0 °F 78% 30.18 in - NNW 2.3 mph - N/A   Unknown
10:00 PM 8 °F - 4 °F 75% 30.20 in - WNW 3.5 mph - -  
10:00 PM 8.2 °F 1.6 °F 3.7 °F 82% 30.20 in - West 3.5 mph - N/A   Unknown
11:00 PM -0.0 °F -7.9 °F -4.2 °F 83% 30.22 in - West 3.5 mph - N/A   Unknown